Flag for Ukraine Weather past 2 weeks in Kyiv, Ukraine

Now
50 °F

Clear.


Feels Like: 47 °F
Forecast: 47 / 68 °F
Wind: 8 mph from East

Location: Kyiv

Current Time: Sep 15, 2014 at 7:22:01 AM

Latest Report: Sep 15, 2014 at 7:00 AM


Visibility: 10 mi

Pressure: 30.21 "Hg

Humidity: 76%

Dew point: 43 °F

Location of KyivLocation

Historic Weather in Kyiv — Graph

°F

Kyiv temperature yesterday

Maximum temperature yesterday: 79 °F (at 4:30 PM)
Minimum temperature yesterday: 50 °F (at 6:30 AM)
Average temperature yesterday: 65 °F

Past Weeks' High & Low Weather Summary

 TemperatureHumidityPressure
High79 °F (Sep 1, 1:00 PM)100% (Aug 31, 7:30 PM)30.27 "Hg (Aug 31, 7:30 PM)
Low45 °F (Sep 6, 4:30 AM)27% (Sep 12, 1:30 PM)29.98 "Hg (Aug 31, 5:30 PM)
Average64 °F63%30.09 "Hg
* Reported Aug 31 6:00 AM — Sep 15 6:00 AM, Kyiv, Weather by CustomWeather, © 2014

Note: Actual official high and low records may vary slightly from our data, if they occured in-between our weather recording intervals... More about our weather records

Advertising

Kyiv weather history for previous 24 hours

 ConditionsComfort  
Time TempWeatherWind HumidityBarometerVisibility
6:00 AM
Sep 15
52 °FClear.8 mph72%30.21 "Hg10 mi
5:30 AM52 °FClear.6 mph72%30.21 "Hg10 mi
5:00 AM54 °FClear.10 mph67%30.18 "Hg10 mi
4:30 AM54 °FClear.8 mph67%30.18 "Hg10 mi
4:00 AM52 °FClear.6 mph72%30.18 "Hg10 mi
3:30 AM55 °FClear.8 mph63%30.18 "Hg10 mi
3:00 AM57 °FClear.8 mph59%30.18 "Hg10 mi
2:30 AM59 °FClear.10 mph55%30.18 "Hg10 mi
2:00 AM59 °FClear.8 mph59%30.18 "Hg10 mi
1:30 AM59 °FClear.8 mph59%30.18 "Hg10 mi
1:00 AM61 °FClear.10 mph55%30.18 "Hg10 mi
12:30 AM61 °FClear.10 mph59%30.18 "Hg10 mi
12:00 AM63 °FClear.8 mph64%30.18 "Hg10 mi
11:30 PM
Sep 14
63 °FClear.8 mph64%30.15 "Hg10 mi
11:00 PM64 °FClear.8 mph60%30.15 "Hg10 mi
10:30 PM64 °FClear.8 mph60%30.15 "Hg10 mi
10:00 PM66 °FClear.10 mph56%30.15 "Hg10 mi
9:30 PM68 °FClear.10 mph49%30.15 "Hg10 mi
9:00 PM68 °FClear.8 mph49%30.15 "Hg10 mi
8:30 PM64 °FClear.6 mph56%30.12 "Hg10 mi
8:00 PM66 °FSunny.8 mph52%30.12 "Hg10 mi
7:30 PM70 °FSunny.8 mph43%30.12 "Hg10 mi
7:00 PM72 °FSunny.10 mph41%30.12 "Hg10 mi
6:30 PM73 °FSunny.8 mph38%30.12 "Hg10 mi
6:00 PM75 °FSunny.10 mph36%30.12 "Hg10 mi
5:30 PM77 °FSunny.8 mph34%30.12 "Hg10 mi
5:00 PM77 °FPassing clouds.8 mph34%30.12 "HgN/A
4:30 PM79 °FPassing clouds.6 mph34%30.12 "HgN/A
4:00 PM77 °FPassing clouds.6 mph36%30.12 "HgN/A
3:30 PM77 °FPassing clouds.8 mph36%30.12 "HgN/A
3:00 PM77 °FPassing clouds.3 mph39%30.15 "HgN/A
2:30 PM77 °FPassing clouds.6 mph39%30.15 "HgN/A
2:00 PM75 °FPassing clouds.6 mph41%30.15 "HgN/A
1:30 PM77 °FSunny.3 mph39%30.15 "Hg10 mi
1:00 PM75 °FSunny.3 mph44%30.15 "Hg10 mi
12:30 PM75 °FPassing clouds.6 mph44%30.15 "HgN/A
12:00 PM73 °FSunny.3 mph50%30.15 "Hg10 mi
11:30 AM73 °FPassing clouds.3 mph47%30.15 "HgN/A
11:00 AM72 °FSunny.3 mph53%30.15 "Hg10 mi
10:30 AM72 °FPassing clouds.3 mph53%30.15 "HgN/A
10:00 AM70 °FPassing clouds.3 mph57%30.15 "HgN/A
9:30 AM68 °FPassing clouds.3 mph60%30.15 "HgN/A
9:00 AM66 °FSunny.1 mph60%30.15 "Hg10 mi
8:30 AM63 °FSunny.No wind68%30.15 "Hg10 mi
8:00 AM59 °FSunny.1 mph77%30.15 "Hg10 mi
7:30 AM52 °FClear.1 mph88%30.15 "HgN/A
7:00 AM52 °FClear.1 mph88%30.15 "Hg10 mi
Weather by CustomWeather, © 2014

See weather overviewHow to use our weather pages